Location: Aniagüita
(10.0946°N, 66.9708°W)
Time: 21:39:33
(UTC+00:00)

Genesis I - Pass Details

Date: 30 June 2022
Orbit: 463 x 542 km, 64.5° (Epoch: 16 August)

Event Time Altitude Azimuth Distance (km) Brightness Sun altitude
Rises 23:17:20 0° 335° (NNW) 2,639 7.7 -6.3°
Reaches altitude 10° 23:19:33 10° 334° (NNW) 1,739 6.7 -6.8°
Maximum altitude 23:23:26 77° 248° (WSW) 522 3.3 -7.7°
Drops below altitude 10° 23:27:12 10° 162° (SSE) 1,692 5.4 -8.5°
Enters shadow 23:28:35 - 161° (SSE) 2,251 6.0 -8.8°
